Location: Poinsettia Observatory
(32.9673°N, 117.0346°W)
Time: 20:48:28
(UTC-07:00)

Daily predictions for brighter satellites

Satellite Brightness Start Highest point End
(mag) Time Altitude Azimuth Time Altitude Azimuth Time Altitude Azimuth
Cosmos 2228 Rocket 3.3 20:20:55 10° N 20:25:26 84° W 20:29:59 10° S
Cosmos 1441 Rocket 3.4 20:22:35 10° SSW 20:26:20 76° W 20:30:05 10° N
Cosmos 2219 3.4 20:22:01 10° S 20:27:35 54° ESE 20:33:10 10° NNE
Cosmos 371 Rocket 4.0 20:23:45 10° NNW 20:28:27 54° WSW 20:33:07 10° S
OAO 2 Rocket 3.4 20:24:11 10° WSW 20:29:29 80° SSE 20:34:50 10° ENE
FENGYUN 3A 3.7 20:24:17 10° SSE 20:29:40 76° ENE 20:35:06 10° N
Meteor 1-21 Rocket 4.3 20:26:19 10° S 20:31:51 84° W 20:37:25 10° N
BREEZE M DEB (TANK) 1.4 20:33:20 10° WNW 20:35:13 69° SSW 20:38:31 10° SE
S3M 4.0 20:29:13 10° N 20:35:20 87° E 20:41:31 10° S
Cosmos 1515 Rocket 3.5 20:32:03 10° N 20:36:28 74° E 20:40:49 10° S
Cosmos 2322 Rocket 3.1 20:31:27 10° NNW 20:36:50 49° WSW 20:42:11 10° S
Resurs 01 Rocket 4.0 20:34:15 10° SSW 20:37:44 23° W 20:41:13 10° NW
ERBS 3.2 20:35:26 10° S 20:38:32 30° ESE 20:41:38 10° ENE
deb Chang Zheng 4 4.1 20:34:54 10° NNE 20:38:58 38° E 20:43:00 10° SSE
Cosmos 1151 Rocket 3.5 20:36:00 10° N 20:40:08 43° E 20:44:16 10° SSE
Cosmos 2322 3.9 20:36:12 10° NNW 20:41:50 57° ENE 20:47:25 10° SE
ATLAS CENTAUR R/B 4.2 20:41:29 10° W 20:42:53 11° WSW 20:44:15 10° SW
ATLAS 2AS CENTAUR R/B 3.9 20:38:04 10° SSE 20:43:26 22° ESE 20:49:06 10° ENE
Cosmos 2360 Rocket 2.3 20:38:10 10° NNW 20:43:45 62° ENE 20:49:21 10° SSE
ERS-1 Rocket 3.3 20:40:19 10° SSE 20:45:09 50° ENE 20:50:01 10° N
Cosmos 1674 2.7 20:44:01 10° S 20:47:51 90° E 20:51:44 10° N
Meteor 2-20 Rocket 4.4 20:43:38 10° S 20:49:45 74° E 20:55:53 10° N
Meteor 2-2 Rocket 4.4 20:43:48 10° N 20:49:51 82° E 20:55:53 10° S
SL-16 R/B 3.5 20:45:24 10° NW 20:50:37 39° WSW 20:55:50 10° S
Envisat 3.8 20:48:32 11° SE 20:52:49 35° ENE 20:57:23 10° N
Cosmos 1908 3.2 20:52:57 10° N 20:56:53 86° E 21:00:48 10° S
Sakura Rocket 3.9 20:53:08 10° SW 20:57:20 29° SSE 20:59:47 16° ESE
Cosmos 304 Rocket 3.7 20:54:12 10° NNW 20:59:01 77° ENE 21:03:27 12° SSE
Cosmos 1805 Rocket 4.0 20:55:32 10° SSE 20:59:44 43° E 21:03:56 10° NNE
H-2A R/B 1.0 20:56:52 10° WSW 20:59:49 28° S 21:00:22 24° SE
SJ-11-01 4.3 20:57:38 10° SSE 21:02:19 74° ENE 21:07:03 10° N
Cosmos 883 Rocket 4.5 20:56:25 10° N 21:02:34 70° E 21:08:39 10° SSE
NOSS 3-1 (C) 3.7 21:00:13 10° SW 21:05:57 72° WNW 21:12:15 10° NNE
Cosmos 2227 Rocket 3.1 21:04:43 12° SSE 21:09:02 28° ESE 21:13:47 10° NE
Cosmos 1300 3.7 21:05:47 10° NNE 21:09:12 30° E 21:10:50 21° ESE
Cosmos 1937 Rocket 3.9 21:04:57 10° S 21:09:48 40° ESE 21:14:39 10° NNE
USA 186 3.9 21:08:35 10° SW 21:10:01 15° W 21:11:31 10° NW
CZ-4 DEB 4.3 21:09:26 10° SSW 21:12:21 33° W 21:15:19 10° NNW
Cosmos 2112 Rocket 4.0 21:10:19 10° NNW 21:15:36 86° ENE 21:19:48 17° SSE
H-2A R/B 2.1 21:13:31 16° SSE 21:17:07 78° ENE 21:21:38 10° N
SPOT 5 3.1 21:19:18 23° SE 21:21:58 50° ENE 21:26:39 10° N
Cosmos 1666 Rocket 3.6 21:19:28 16° S 21:22:48 58° E 21:27:09 10° NNE
Cosmos 1707 Rocket 3.8 21:19:06 10° N 21:23:20 48° E 21:25:27 26° SE
OTV 4 1.2 21:20:55 10° W 21:23:49 50° NNW 21:26:19 13° ENE
Cosmos 2298 Rocket 4.2 21:21:17 10° SSW 21:26:35 78° WNW 21:31:56 10° NNE
ARGOS 4.3 21:26:16 21° ESE 21:28:32 28° ENE 21:33:04 10° NNE
Hubble Space Telescope 1.3 21:25:38 10° WSW 21:29:28 37° S 21:30:22 33° SE
Meteor 1-11 4.2 21:24:23 10° S 21:30:09 83° E 21:35:53 10° N
Cosmos 1455 4.5 21:29:41 10° NE 21:30:51 12° ENE 21:30:51 12° ENE
CZ-4B R/B 3.8 21:26:33 10° NNE 21:31:36 48° E 21:34:27 24° SSE
Cosmos 1726 2.5 21:29:17 10° N 21:32:57 46° E 21:33:54 37° SE
Cosmos 2333 Rocket 3.4 21:30:27 10° N 21:35:24 29° ENE 21:37:44 22° E
Cosmos 2297 Rocket 2.9 21:33:35 27° SE 21:35:25 33° ESE 21:40:25 10° NE
Cosmos 1470 Rocket 4.4 21:36:19 29° ESE 21:36:44 30° E 21:40:29 10° NNE
Cosmos 1933 Rocket 4.5 21:37:06 29° ESE 21:37:37 30° E 21:41:30 10° NNE
Cosmos 1241 Rocket 4.3 21:31:52 10° SSW 21:37:59 70° ESE 21:44:11 10° NNE
Meteor 1-4 Rocket 3.1 21:37:32 10° N 21:41:02 39° E 21:41:20 38° E
Cosmos 2058 3.7 21:37:18 10° SSW 21:41:16 49° W 21:45:15 10° N
Cosmos 2315 Rocket 4.1 21:35:43 10° N 21:41:54 79° W 21:46:45 17° S
Cosmos 2219 Rocket 2.7 21:37:22 10° N 21:42:41 43° ENE 21:44:50 30° ESE
COSMOS 2428 2.7 21:41:45 10° NNW 21:47:26 79° WSW 21:50:27 29° SSE
DELTA 2 R/B (1) 4.1 21:44:11 10° WNW 21:49:28 46° SSW 21:51:24 33° SSE
NOSS 0 Rocket 4.4 21:45:18 10° N 21:51:14 47° ENE 21:53:35 32° ESE
Terra 3.5 21:53:15 18° ENE 21:53:44 18° ENE 21:56:57 10° NNE
Tiangong 1 4.1 21:52:28 10° NW 21:54:18 15° N 21:56:08 10° NNE
Nadezhda 1 Rocket 4.5 21:49:25 10° N 21:55:10 41° E 21:56:55 34° ESE
Cosmos 1939 Rocket 4.4 21:54:32 16° SSW 21:56:58 29° W 22:00:25 10° NW
H-2A R/B 3.3 21:56:03 24° E 21:57:10 26° ENE 22:01:35 10° NNE
SL-08 R/B 4.4 21:54:13 23° S 21:58:15 81° E 22:04:33 10° N
Delta 2 Rocket 2.7 21:55:25 10° WNW 21:59:05 84° NNE 21:59:11 82° NE
CZ-4 SHROUD 4.0 22:01:22 43° WSW 22:01:37 44° W 22:04:38 10° NNW
COSMOS 2455 4.4 21:58:17 10° N 22:02:55 22° NE 22:04:58 19° E
Cosmos 1125 Rocket 4.1 22:03:57 37° E 22:03:57 37° E 22:08:40 10° NE
Cosmos 1745 Rocket 3.9 22:01:30 29° S 22:04:49 78° E 22:11:00 10° N
MetOp-B 4.3 22:04:48 33° S 22:07:12 70° WSW 22:12:33 10° NNW
Cosmos 1980 4.0 22:01:50 10° N 22:07:19 50° ENE 22:08:40 41° ESE
SL-23 DEB 4.1 22:05:16 10° NW 22:09:20 48° SW 22:09:20 48° SW
SPOT 1/Viking Rocket 3.4 22:08:10 47° SSE 22:09:41 85° ENE 22:14:51 10° NNW
Cosmos 1626 2.7 22:11:29 47° NE 22:11:29 47° NE 22:14:26 10° NNE
Sich 1 4.3 22:08:25 16° SW 22:11:36 39° W 22:15:44 10° N
YAOGAN 6 3.0 22:13:57 54° WSW 22:14:08 54° W 22:17:41 10° NNW
OAO 2 Rocket 3.6 22:09:10 10° W 22:14:29 70° N 22:16:58 32° ENE
Cosmos 1869 4.4 22:11:53 10° NNE 22:14:51 32° NE 22:14:51 32° NE
Iridium 2 3.7 22:15:42 78° W 22:15:44 78° W 22:19:35 10° N
Cosmos 1271 Rocket 2.8 22:11:58 10° NNW 22:15:48 69° W 22:15:59 68° WSW
Cosmos 2237 Rocket 2.3 22:13:25 10° NNW 22:19:02 59° ENE 22:20:07 50° ESE
Cosmos 2082 4.0 22:15:34 11° SSW 22:20:58 65° WNW 22:26:40 10° NNE
Cosmos 1386 Rocket 4.3 22:20:38 47° S 22:22:28 78° E 22:28:29 10° N
Cosmos 1862 Rocket 3.8 22:18:22 10° N 22:22:14 54° ENE 22:22:14 54° ENE
CZ-4C R/B 4.2 22:27:55 36° NNE 22:27:55 36° NNE 22:30:12 10° N
NOAA 11 4.1 22:26:59 55° S 22:28:13 81° WSW 22:33:42 10° NNW
Cosmos 2242 Rocket 4.5 22:26:57 10° NNW 22:31:14 44° W 22:32:08 39° SW
ATLAS 2AS CENTAUR R/B 3.3 22:26:23 10° SW 22:33:39 65° WNW 22:41:36 10° NNE
Cosmos 192 4.3 22:41:03 10° NNW 22:45:44 79° NNE 22:45:44 79° NNE
ATLAS 3B R/B 3.1 22:39:57 10° NNW 22:46:37 48° NE 22:47:56 42° E
CZ-3A R/B 3.8 22:34:17 10° W 22:46:46 38° SSW 22:46:46 38° SSW
Cosmos 2181 Rocket 4.2 22:45:49 10° N 22:52:06 54° E 22:52:25 54° E
Cosmos 2227 Rocket 3.8 22:47:55 10° SW 22:52:54 32° WNW 22:57:57 10° N
Cosmos 468 4.5 22:49:24 10° NNW 22:54:31 76° NE 22:54:31 76° NE
OTV 4 3.9 22:57:50 10° WNW 22:57:53 10° WNW 22:57:53 10° WNW
DMSP B5D2-2 4.1 22:55:52 10° N 23:01:03 70° WNW 23:01:16 68° W
Cosmos 1455 4.1 23:03:31 10° NNW 23:05:54 27° WNW 23:05:54 27° WNW
NOSS 2-3 (E) 4.3 23:08:25 60° WNW 23:08:28 60° WNW 23:13:45 10° NNE
ARGOS 4.4 23:07:47 29° WSW 23:08:37 30° W 23:13:19 10° NW
SL-16 R/B 2.3 23:09:11 10° NNW 23:14:25 71° NNE 23:14:25 71° NNE
Cosmos 2297 Rocket 4.0 23:15:16 13° WSW 23:19:24 28° WNW 23:24:12 10° N
Cosmos 2333 Rocket 3.3 23:14:31 10° NW 23:19:36 33° WSW 23:19:45 33° WSW
SeaSat 1 4.4 23:20:10 19° NE 23:20:10 19° NE 23:23:28 10° N
Cosmos 44 Rocket 4.1 23:22:01 49° WNW 23:22:14 49° WNW 23:27:18 10° NNE
Lacrosse 4 Rocket 2.8 23:18:47 10° NNW 23:21:37 39° NNW 23:21:37 39° NNW
Cosmos 2219 Rocket 4.0 23:22:16 10° NW 23:26:14 20° W 23:26:34 20° WSW
Terra 3.2 23:32:08 33° WNW 23:32:08 33° WNW 23:35:33 10° NNW
H-2A R/B 3.4 23:36:42 33° W 23:36:42 33° W 23:41:12 10° NW
COSMOS 2455 3.5 23:43:17 10° NW 23:48:06 46° W 23:48:06 46° W
Cosmos 1603 4.4 23:43:40 10° N 23:48:14 48° NNE 23:48:14 48° NNE
